Temp
11 11 11 11 12 13 13 12 11 11 11 10 10 10 10 10 10 10 10 10 11 11 11 11 12 12 12 12 12 12 11 11 10 9 9 9 9 9 9 9 9 9
10 11 11 11 11 12 12 12 12 11 11 11 11 10 10 10 10 10 10 10 10 10 10 10 11 11 11 11 11 11 10 10 10 10 9 9 9 9 9 9 9 9
9 9 10 10 11 11 11 12 12 11 11 11 11 11 10 10 10 10 10 10 10 10 10 10 10 10 10 10 10 10 10 10 10 10 10 9 9 9 9 9 9 9
9 8 9 9 10 10 11 11 11 11 11 11 11 11 11 10 10 10 9 9 9 9 9 9 9 9 10 10 10 9 10 10 10 10 10 9 10 9 9 9 9 9
8 8 8 8 8 9 9 10 10 11 11 11 10 10 10 10 10 9 9 8 8 8 9 9 9 9 9 9 9 9 9 9 10 10 10 9 9 9 9 9 9 9
8 8 8 8 8 8 8 9 9 10 10 11 10 10 10 10 9 9 9 9 8 8 8 8 8 8 8 8 8 8 8 9 9 9 9 9 9 9 9 9 8 8
8 8 8 8 7 7 7 8 8 8 9 9 10 10 10 10 9 9 9 8 8 8 8 8 8 8 8 8 8 8 8 8 8 8 8 8 8 8 8 8 8 8
9 8 8 8 7 6 6 7 7 8 8 8 8 8 9 9 9 9 8 8 8 8 7 7 8 8 8 8 8 8 7 7 8 8 8 7 7 7 7 8 8 7
9 9 8 7 7 6 6 6 6 7 7 7 7 8 8 8 8 8 8 8 8 8 7 7 7 7 7 7 7 7 7 7 7 8 8 7 7 7 7 7 7 7
8 9 8 8 7 7 7 6 6 6 6 7 7 7 7 7 7 7 7 7 7 8 7 7 7 6 6 7 7 7 7 7 7 7 8 7 7 7 7 7 7 6
7 7 7 8 8 8 8 7 7 6 6 6 6 7 7 7 7 6 6 6 7 7 7 7 7 6 6 6 6 6 7 7 7 7 7 7 7 7 7 7 7 6
6 6 6 7 7 7 7 7 7 6 5 5 6 6 6 6 6 6 6 6 6 6 6 7 7 7 6 6 6 6 6 6 7 7 7 7 7 7 7 7 6 6
6 6 6 6 6 7 7 7 6 6 5 5 5 5 6 6 6 6 6 6 6 6 5 6 6 6 6 6 5 5 5 5 6 6 6 6 6 6 6 7 6 6
7 6 6 6 6 6 6 6 6 5 5 5 5 5 5 5 5 5 5 5 5 5 5 5 5 5 5 6 5 5 5 5 5 5 5 5 5 5 5 6 5 5
6 6 6 6 5 5 5 5 5 5 5 5 5 5 5 5 5 5 5 5 5 4 4 4 4 4 4 5 5 5 5 5 5 5 5 5 4 4 4 4 4 4
5 6 6 6 5 5 5 5 5 5 4 5 4 4 4 4 5 5 4 4 4 4 4 4 4 4 4 5 5 5 4 4 4 4 4 4 4 4 3 4 4 4
5 5 5 5 5 5 5 5 5 4 4 4 4 4 4 4 4 4 4 4 4 3 3 3 4 4 4 4 4 4 4 3 3 3 3 3 3 3 3 3 3 3
4 4 5 5 5 4 4 4 4 4 4 4 4 4 4 4 3 3 3 3 3 3 3 3 4 4 3 3 3 3 3 3 3 3 3 2 3 3 2 2 2 2
3 4 4 4 4 4 4 4 4 3 3 4 4 4 4 3 3 3 3 3 3 2 2 2 3 3 3 3 3 3 3 3 2 2 2 2 2 2 2 2 1 1
3 3 3 4 4 4 4 3 3 3 3 3 3 3 3 3 3 2 2 2 2 2 2 1 2 2 2 2 2 2 2 2 2 2 2 1 1 1 1 1 1 0
2 2 3 3 3 3 3 3 3 3 3 3 3 3 3 3 2 2 2 2 2 2 2 1 1 1 2 2 2 2 2 1 1 1 1 1 1 1 0 -0 0 0
2 2 2 2 2 2 2 2 2 2 3 3 2 2 2 2 2 2 2 1 1 1 1 1 1 1 1 1 2 1 1 1 1 1 0 0 0 0 0 -0 -0 -0
1 2 2 2 2 2 2 2 2 2 2 2 2 2 1 1 1 1 1 1 1 1 1 0 0 0 1 1 1 1 1 1 0 0 -0 -0 -0 -0 -0 -0 -0 -0
1 1 1 2 2 2 2 2 2 2 2 2 2 2 1 1 1 1 1 1 1 0 0 0 0 0 0 1 0 0 0 0 0 -0 -1 -1 -1 -1 -1 -1 -1 -0
1 1 1 1 1 1 2 2 2 2 1 1 1 1 1 1 1 1 0 0 0 0 0 0 -0 -0 0 0 -0 -0 0 0 -0 -0 -1 -1 -2 -2 -2 -1 -1 -1
0 0 1 1 1 1 1 1 1 1 1 1 1 1 1 0 0 0 -0 -0 -0 -0 -0 -0 -0 -0 -0 -0 -0 -0 -0 0 -0 -1 -1 -2 -2 -2 -2 -2 -2 -1
Height
728 729 730 730 731 732 734 736 738 741 742 743 745 746 748 749 752 755 757 759 762 764 766 768 770 771 771 774 779 784 789 794 798 802 806 810 813 814 815 817 819 820
728 729 729 729 730 731 733 734 736 738 740 741 743 746 748 749 751 753 755 758 760 763 766 768 770 771 771 771 773 776 780 786 791 795 800 804 808 811 812 813 815 817
728 728 728 728 729 730 732 734 735 737 739 741 742 745 747 748 750 752 754 756 759 762 765 768 769 769 770 770 771 773 774 778 782 788 793 797 801 805 808 810 811 813
726 726 726 727 728 729 731 732 735 736 738 740 741 744 746 747 749 750 752 755 757 760 762 766 768 768 769 769 769 770 772 773 775 780 785 790 794 799 803 805 808 810
722 723 724 725 726 728 729 731 733 734 736 738 740 742 744 746 747 748 750 753 755 757 760 763 766 767 767 768 768 769 770 771 772 774 778 782 787 792 796 800 802 805
719 720 721 722 724 725 727 729 731 732 734 735 737 740 741 743 745 747 749 751 753 755 757 759 762 764 765 766 767 768 768 769 770 771 773 776 780 785 790 794 796 800
717 718 719 721 722 724 726 727 728 730 732 734 735 737 739 741 742 745 747 749 751 753 754 756 758 760 761 763 764 766 767 768 768 769 771 773 776 780 784 788 791 794
715 717 718 720 722 723 725 726 727 729 731 733 734 736 738 739 740 742 744 746 749 750 751 754 755 756 758 759 760 762 764 765 765 767 769 771 773 776 780 783 787 790
714 716 717 719 720 721 723 725 727 729 730 732 733 735 736 737 738 740 741 743 745 747 748 751 752 753 754 755 756 758 760 761 760 763 766 768 770 772 776 780 783 786
712 714 715 716 717 718 720 722 724 727 729 730 732 733 734 735 736 738 739 739 741 742 744 747 749 751 751 752 753 755 757 758 757 758 761 764 766 769 772 776 779 782
709 711 712 713 714 715 717 719 721 723 725 727 729 730 731 732 733 734 735 736 736 737 739 741 744 748 749 750 750 752 754 755 754 755 758 761 763 765 768 771 775 778
705 706 708 709 711 712 714 716 718 719 721 723 725 727 728 729 730 732 732 732 733 734 735 736 738 741 745 747 749 749 751 752 751 752 755 758 761 762 765 768 771 774
700 701 703 705 706 708 711 713 714 716 718 719 721 723 725 726 727 728 728 729 730 731 732 733 734 736 738 742 746 748 749 749 748 749 753 757 759 761 762 764 768 770
695 697 698 700 702 704 706 708 710 712 713 715 717 719 721 722 723 725 726 726 728 729 730 732 733 734 735 737 741 744 746 747 747 747 750 754 758 760 760 762 765 768
691 693 694 696 697 699 701 703 705 707 709 711 713 715 716 718 720 721 723 724 725 726 727 729 730 732 733 734 736 738 741 744 745 744 746 750 754 757 758 760 763 765
688 689 691 692 693 695 697 699 701 703 705 707 709 711 713 714 716 718 719 721 722 723 724 725 727 728 730 732 734 736 737 739 742 743 743 745 750 753 755 756 760 763
686 687 688 689 690 692 693 695 698 700 702 704 705 708 709 711 713 715 716 718 719 720 721 722 723 724 727 729 732 735 736 736 739 742 743 743 745 748 750 752 757 761
684 685 686 686 687 689 691 693 695 696 699 700 702 704 706 708 710 711 713 715 717 718 718 719 720 721 724 727 729 732 735 735 736 739 743 744 743 744 746 748 752 757
682 683 684 685 686 687 689 691 692 693 696 697 699 701 703 704 706 708 710 712 714 715 715 716 717 719 722 725 726 729 732 734 735 736 739 742 742 742 744 745 749 753
681 681 682 683 684 686 687 688 690 691 693 695 697 699 700 701 703 705 707 709 711 712 713 714 715 716 719 722 724 727 730 732 735 735 736 739 741 742 742 743 745 748
679 680 681 682 683 685 686 687 688 689 691 693 694 696 697 698 700 702 705 707 708 710 710 711 712 714 717 719 721 724 727 730 734 736 736 737 739 740 742 743 744 745
677 678 679 681 682 683 684 685 687 688 689 691 692 693 694 696 697 699 702 704 706 707 708 708 710 711 714 717 719 722 725 728 732 735 736 737 737 738 741 743 744 744
675 676 678 679 681 682 683 684 685 686 688 689 690 692 693 695 696 697 699 702 703 704 705 706 707 709 712 714 717 720 723 725 729 732 734 735 735 736 738 741 742 742
674 675 676 678 679 680 681 682 684 685 687 688 689 690 691 693 695 696 698 699 700 701 702 704 705 707 710 713 715 719 721 722 724 728 731 732 734 736 737 739 740 741
673 674 675 676 677 678 680 681 682 684 685 686 688 689 690 691 693 695 696 697 698 699 700 702 704 705 708 710 713 716 717 718 721 724 727 729 732 734 736 738 738 739
672 672 673 674 675 676 678 679 680 682 683 685 686 687 689 690 691 693 694 695 696 697 698 700 701 703 705 707 709 711 713 714 717 720 723 726 729 732 734 735 736 736
Wind_Speed
21 21 20 20 21 22 26 30 32 34 36 36 36 37 38 40 41 44 45 45 47 49 51 53 55 56 57 57 57 56 54 52 50 48 46 44 42 41 42 42 41 42
23 23 22 22 22 23 26 30 33 35 36 37 37 34 33 35 37 41 43 43 44 45 45 48 51 53 54 56 57 56 55 53 52 50 47 46 44 42 43 44 43 43
24 25 25 25 25 25 26 29 31 33 34 35 37 35 34 35 36 39 42 41 42 43 43 45 48 50 52 54 55 55 55 55 54 52 50 49 47 44 43 44 44 42
25 26 26 27 27 27 28 28 30 32 32 33 34 35 36 36 36 38 39 39 39 40 41 42 44 48 49 51 53 54 54 55 56 54 51 50 49 46 44 43 43 42
24 25 26 26 27 27 28 29 31 32 33 33 34 34 35 35 37 38 38 39 39 38 40 41 42 45 46 48 50 52 52 52 53 54 53 51 49 47 45 44 42 41
22 23 24 26 27 27 27 29 30 32 33 35 35 36 37 37 37 38 38 40 40 39 40 41 42 43 44 45 46 47 49 48 48 50 51 49 48 47 46 45 43 42
23 24 25 26 27 28 28 29 30 32 33 34 35 37 39 39 39 39 39 40 41 41 41 41 42 43 44 45 45 44 45 45 45 47 47 45 44 44 45 44 43 42
24 25 26 26 27 28 29 30 30 31 32 33 34 36 37 39 40 40 40 40 41 43 42 41 41 43 43 45 46 45 44 43 44 44 43 42 43 43 44 43 42 41
25 25 26 27 28 29 30 31 31 31 31 32 34 35 36 38 38 39 40 41 42 43 43 41 40 41 43 44 46 46 45 44 45 46 44 43 43 43 43 43 42 42
27 27 27 28 28 29 30 31 31 31 31 32 33 34 36 37 38 37 38 39 41 43 43 41 40 39 39 42 45 45 44 44 45 46 46 45 45 44 44 44 44 43
28 29 29 29 29 29 30 30 30 30 31 32 33 33 34 36 37 37 37 37 40 42 43 44 44 41 38 40 43 44 44 45 46 46 46 47 47 46 46 47 46 46
26 28 30 31 31 31 31 31 31 31 31 32 33 33 33 34 35 36 36 37 39 41 42 44 46 45 42 40 40 41 41 43 44 45 45 46 47 47 48 48 48 47
23 25 28 29 30 31 31 31 32 32 32 33 33 33 33 34 34 35 36 37 38 38 38 39 42 44 45 43 40 39 39 40 41 42 42 43 44 46 47 48 48 48
21 22 23 25 27 28 29 30 31 32 32 32 32 32 33 34 34 35 35 36 36 35 34 34 35 38 42 43 42 40 39 39 40 42 41 41 41 43 45 46 46 47
19 20 21 23 24 25 27 28 29 30 30 30 30 31 32 33 33 34 35 35 35 35 34 33 33 35 38 41 43 42 41 40 40 41 42 42 41 41 42 44 45 45
18 19 20 22 23 24 25 26 27 28 28 28 29 29 30 31 32 32 33 34 35 35 34 33 34 36 38 40 42 42 42 40 38 39 42 43 43 42 42 42 43 44
17 17 19 21 23 24 25 25 26 26 27 27 28 28 29 29 30 31 32 33 34 34 34 35 36 37 39 40 41 41 40 39 37 36 38 41 43 43 43 43 43 43
17 17 18 20 22 23 24 25 25 25 26 27 27 28 28 28 29 30 31 33 33 33 34 37 39 39 38 39 39 39 38 38 38 37 36 38 41 43 43 43 44 44
16 17 18 20 21 22 23 24 24 25 26 27 28 28 28 28 29 30 31 32 33 33 33 36 39 39 38 38 38 38 38 37 37 38 37 36 37 40 41 42 43 42
15 16 18 19 20 21 22 23 24 26 26 27 28 28 28 28 28 29 30 31 33 34 33 34 36 37 38 38 37 37 37 36 34 36 37 36 35 35 37 40 43 43
14 15 17 18 19 20 21 23 24 25 26 27 28 29 30 30 29 28 28 30 33 34 33 32 34 35 36 37 37 36 36 34 33 32 33 35 35 34 34 37 41 42
13 15 16 17 18 19 20 22 23 24 26 27 27 28 28 28 28 27 27 29 32 33 32 32 32 33 34 34 36 36 35 34 33 32 31 33 35 35 35 35 38 40
14 15 17 17 18 19 20 22 23 24 25 25 25 25 25 25 26 25 26 29 32 32 31 31 30 31 32 33 35 36 36 35 34 33 32 31 32 34 36 36 38 39
15 16 17 18 18 19 20 21 22 24 24 24 25 25 26 26 25 23 25 29 31 32 31 31 30 30 32 33 34 37 38 37 35 33 31 29 29 31 33 36 37 39
17 17 18 19 20 20 21 22 23 24 24 24 24 24 23 22 22 23 25 28 30 30 30 30 29 29 32 33 35 37 38 37 35 32 30 29 29 29 31 33 35 37
18 18 19 19 20 21 22 23 23 23 23 22 22 21 19 19 21 24 26 28 28 27 28 29 29 29 31 34 36 38 38 37 35 34 32 30 30 30 30 31 33 36
Wind_Direction
221 224 221 215 209 209 208 204 200 197 197 197 198 198 197 196 196 194 194 194 194 196 197 197 197 197 196 197 198 198 198 199 200 201 202 203 204 204 203 202 201 201
218 221 223 221 216 212 211 210 207 204 203 204 204 204 202 199 198 196 196 197 198 199 200 199 198 198 197 195 195 196 196 198 199 200 201 203 205 206 205 204 204 204
217 219 220 221 220 219 217 215 215 214 212 211 210 210 209 205 202 200 199 200 201 202 202 203 201 200 198 197 196 196 196 196 198 199 201 203 205 206 207 206 205 205
218 219 220 222 223 223 221 218 218 219 220 219 217 216 215 212 208 205 203 202 203 204 204 205 204 202 200 199 198 197 197 198 199 199 200 202 204 205 206 206 205 205
223 221 221 224 225 225 224 221 219 220 222 224 224 221 220 217 214 212 209 207 206 206 205 206 207 205 203 201 200 199 199 199 199 198 198 200 202 203 204 204 203 203
226 227 226 226 226 228 228 226 224 223 223 225 225 225 225 223 219 217 215 212 210 209 207 207 208 207 205 204 203 202 201 200 199 198 197 198 198 200 202 202 200 200
225 226 228 227 225 225 228 230 230 227 226 226 225 226 226 225 223 222 219 216 214 212 211 209 208 209 207 206 205 205 204 202 200 198 197 197 196 196 199 200 199 197
229 226 225 225 223 222 224 227 230 230 228 226 226 226 226 225 225 223 222 220 217 216 215 213 211 210 209 208 206 206 206 203 200 198 197 196 195 195 196 197 197 196
232 230 226 223 222 221 222 224 227 229 230 228 226 227 227 227 226 224 222 221 219 219 218 216 214 212 210 209 207 207 207 204 200 198 198 197 195 195 194 195 196 196
226 227 227 226 225 225 226 226 226 226 228 230 230 229 229 229 228 225 223 221 220 219 219 218 217 214 212 210 209 208 207 205 201 198 199 200 198 197 196 196 196 195
219 220 221 222 225 228 231 232 231 228 227 230 231 231 231 231 229 227 225 222 221 221 219 218 219 218 215 213 211 209 209 208 204 200 201 202 201 200 198 198 197 196
219 217 218 220 221 225 228 230 231 230 229 230 231 232 233 234 232 230 228 226 225 224 221 219 218 217 216 216 214 211 210 209 205 202 203 203 202 201 200 199 199 198
226 224 223 223 224 224 226 227 227 227 227 229 231 231 233 235 236 234 233 231 229 227 225 222 218 216 217 217 216 214 212 210 206 202 203 204 203 202 201 200 200 199
243 240 237 234 231 229 228 226 226 225 225 227 229 229 231 234 237 238 237 235 233 230 228 225 220 217 216 216 215 214 213 212 208 203 201 202 202 202 201 200 201 200
256 254 251 248 242 236 233 230 228 226 225 226 228 230 231 233 235 238 237 236 235 233 230 227 223 220 218 217 216 215 214 213 210 204 201 201 201 202 201 200 200 200
263 260 257 253 248 242 238 234 231 228 226 226 228 230 232 232 232 234 234 234 234 233 231 227 225 225 223 222 220 218 215 212 210 207 203 200 200 200 199 199 200 201
267 264 258 253 249 244 240 236 232 228 225 225 226 228 230 230 229 230 231 231 231 230 229 228 228 227 224 223 222 219 216 211 207 207 205 201 200 199 198 197 198 200
268 265 259 253 248 243 239 235 230 226 224 223 223 224 226 227 227 227 227 228 229 229 227 227 229 228 224 222 219 217 216 213 207 206 207 205 202 200 198 196 195 198
265 262 257 251 247 243 238 233 227 224 223 223 223 224 225 224 225 226 225 225 226 227 225 224 225 226 223 222 220 217 216 215 210 206 207 207 205 201 198 195 194 194
260 256 251 248 244 239 234 228 224 223 223 224 224 223 221 221 222 222 222 223 224 226 226 223 222 221 220 220 218 216 215 215 213 209 207 207 206 203 200 196 194 193
252 248 245 243 239 233 229 225 224 224 224 225 224 222 221 221 220 220 220 221 223 224 224 224 222 219 217 216 215 214 213 212 213 211 208 206 206 205 203 199 195 193
244 242 240 238 234 229 226 225 225 225 225 224 223 221 220 219 217 219 222 222 222 222 220 222 223 219 214 213 213 211 208 206 209 211 209 207 206 204 205 203 198 194
241 239 236 234 230 226 225 224 225 226 226 224 221 219 219 218 216 219 224 223 221 219 217 217 219 216 212 211 210 207 204 202 205 209 209 208 206 204 203 202 200 197
240 237 236 234 230 227 226 226 226 227 227 225 224 222 220 219 219 222 225 223 219 217 215 214 214 211 208 208 206 204 203 200 201 204 206 206 205 203 202 202 200 198
239 238 237 235 233 232 232 231 230 229 229 226 223 220 219 221 225 227 226 223 220 217 214 211 211 208 204 203 202 202 202 199 197 199 202 203 203 201 200 201 199 198
240 239 239 236 234 235 235 235 232 227 224 221 218 220 225 230 232 228 224 222 220 218 213 210 210 206 201 202 202 201 200 197 195 196 199 200 200 198 197 198 197 196